owner,sensor,date,latitude,longitude,vertical_datum,sea_water_practical_salinity,qcFlag 
SCCF RECON,ioos:station:SCCF:53:1,2010-03-01T00:00:00Z,26.6493,-81.8810,2.01,10.52,1111122 
SCCF RECON,ioos:station:SCCF:53:1,2010-03-01T01:00:00Z,26.6493,-81.8810,1.962,10.29,1111122 
SCCF RECON,ioos:station:SCCF:53:1,2010-03-01T02:00:00Z,26.6493,-81.8810,1.93,10.22,1111122 
SCCF RECON,ioos:station:SCCF:53:1,2010-03-01T03:00:00Z,26.6493,-81.8810,1.917,9.97,1111122 
SCCF RECON,ioos:station:SCCF:53:1,2010-03-01T04:00:00Z,26.6493,-81.8810,1.97,11.84,1111122 
SCCF RECON,ioos:station:SCCF:53:1,2010-03-01T05:00:00Z,26.6493,-81.8810,2.02,12.49,1111122 
SCCF RECON,ioos:station:SCCF:53:1,2010-03-01T06:00:00Z,26.6493,-81.8810,2.07,12.76,1111122 
SCCF RECON,ioos:station:SCCF:53:1,2010-03-01T07:00:00Z,26.6493,-81.8810,2.14,12.66,1111122 
SCCF RECON,ioos:station:SCCF:53:1,2010-03-01T08:00:00Z,26.6493,-81.8810,2.195,13.13,1111122 
SCCF RECON,ioos:station:SCCF:53:1,2010-03-01T09:00:00Z,26.6493,-81.8810,2.23,13.4,1111122 
SCCF RECON,ioos:station:SCCF:53:1,2010-03-01T10:00:00Z,26.6493,-81.8810,2.21,13.26,1111122 
SCCF RECON,ioos:station:SCCF:53:1,2010-03-01T11:00:00Z,26.6493,-81.8810,2.16,12.39,1111122 
SCCF RECON,ioos:station:SCCF:53:1,2010-03-01T12:00:00Z,26.6493,-81.8810,2.11,12.23,1111122 
SCCF RECON,ioos:station:SCCF:53:1,2010-03-01T13:00:00Z,26.6493,-81.8810,2.064,12.96,1111122 
SCCF RECON,ioos:station:SCCF:53:1,2010-03-01T14:00:00Z,26.6493,-81.8810,2.02,13.11,1111122 
SCCF RECON,ioos:station:SCCF:53:1,2010-03-01T15:00:00Z,26.6493,-81.8810,1.98,13.23,1111122 
SCCF RECON,ioos:station:SCCF:53:1,2010-03-01T16:00:00Z,26.6493,-81.8810,1.95,13.23,1111122 
SCCF RECON,ioos:station:SCCF:53:1,2010-03-01T17:00:00Z,26.6493,-81.8810,1.99,13.1,1111122 
SCCF RECON,ioos:station:SCCF:53:1,2010-03-01T18:00:00Z,26.6493,-81.8810,2.03,13.42,1111122 
SCCF RECON,ioos:station:SCCF:53:1,2010-03-01T19:00:00Z,26.6493,-81.8810,2.067,13.51,1111122 
SCCF RECON,ioos:station:SCCF:53:1,2010-03-01T20:00:00Z,26.6493,-81.8810,2.12,13.6,1111122 
SCCF RECON,ioos:station:SCCF:53:1,2010-03-01T21:00:00Z,26.6493,-81.8810,2.158,13.46,1111122 
SCCF RECON,ioos:station:SCCF:53:1,2010-03-01T22:00:00Z,26.6493,-81.8810,2.163,13.5,1111122 
SCCF RECON,ioos:station:SCCF:53:1,2010-03-01T23:00:00Z,26.6493,-81.8810,2.119,13.27,1111122 
SCCF RECON,ioos:station:SCCF:53:1,2010-03-02T00:00:00Z,26.6493,-81.8810,2.064,12.6,1111122 
SCCF RECON,ioos:station:SCCF:53:1,2010-03-02T01:00:00Z,26.6493,-81.8810,2.024,12.19,1111122 
SCCF RECON,ioos:station:SCCF:53:1,2010-03-02T02:00:00Z,26.6493,-81.8810,1.969,11.84,1111122 
SCCF RECON,ioos:station:SCCF:53:1,2010-03-02T03:00:00Z,26.6493,-81.8810,1.92,11.69,1111122 
SCCF RECON,ioos:station:SCCF:53:1,2010-03-02T04:00:00Z,26.6493,-81.8810,1.9,11.96,1111122 
SCCF RECON,ioos:station:SCCF:53:1,2010-03-02T05:00:00Z,26.6493,-81.8810,1.95,12.24,1111122 
SCCF RECON,ioos:station:SCCF:53:1,2010-03-02T06:00:00Z,26.6493,-81.8810,1.99,12.53,1111122 
SCCF RECON,ioos:station:SCCF:53:1,2010-03-02T07:00:00Z,26.6493,-81.8810,2.04,12.75,1111122 
SCCF RECON,ioos:station:SCCF:53:1,2010-03-02T08:00:00Z,26.6493,-81.8810,2.1,12.87,1111122 
SCCF RECON,ioos:station:SCCF:53:1,2010-03-02T09:00:00Z,26.6493,-81.8810,2.149,13.09,1111122 
SCCF RECON,ioos:station:SCCF:53:1,2010-03-02T10:00:00Z,26.6493,-81.8810,2.17,13.21,1111122 
SCCF RECON,ioos:station:SCCF:53:1,2010-03-02T11:00:00Z,26.6493,-81.8810,2.151,13.14,1111122 
SCCF RECON,ioos:station:SCCF:53:1,2010-03-02T12:00:00Z,26.6493,-81.8810,2.101,12.71,1111122 
SCCF RECON,ioos:station:SCCF:53:1,2010-03-02T13:00:00Z,26.6493,-81.8810,2.093,12.28,1111122 
SCCF RECON,ioos:station:SCCF:53:1,2010-03-02T14:00:00Z,26.6493,-81.8810,2.076,11.87,1111122 
SCCF RECON,ioos:station:SCCF:53:1,2010-03-02T15:00:00Z,26.6493,-81.8810,2.074,11.62,1111122 
SCCF RECON,ioos:station:SCCF:53:1,2010-03-02T16:00:00Z,26.6493,-81.8810,2.122,11.7,1111122 
SCCF RECON,ioos:station:SCCF:53:1,2010-03-02T17:00:00Z,26.6493,-81.8810,2.175,11.92,1111122 
SCCF RECON,ioos:station:SCCF:53:1,2010-03-02T18:00:00Z,26.6493,-81.8810,2.225,12.51,1111122 
SCCF RECON,ioos:station:SCCF:53:1,2010-03-02T19:00:00Z,26.6493,-81.8810,2.283,12.64,1111122 
SCCF RECON,ioos:station:SCCF:53:1,2010-03-02T20:00:00Z,26.6493,-81.8810,2.344,13.0,1111122 
SCCF RECON,ioos:station:SCCF:53:1,2010-03-02T21:00:00Z,26.6493,-81.8810,2.4,13.15,1111122 
SCCF RECON,ioos:station:SCCF:53:1,2010-03-02T22:00:00Z,26.6493,-81.8810,2.414,13.22,1111122 
SCCF RECON,ioos:station:SCCF:53:1,2010-03-02T23:00:00Z,26.6493,-81.8810,2.38,13.22,1111122 
SCCF RECON,ioos:station:SCCF:53:1,2010-03-03T00:00:00Z,26.6493,-81.8810,2.332,12.87,1111122 
SCCF RECON,ioos:station:SCCF:53:1,2010-03-03T01:00:00Z,26.6493,-81.8810,2.284,12.34,1111122 
SCCF RECON,ioos:station:SCCF:53:1,2010-03-03T02:00:00Z,26.6493,-81.8810,2.234,11.97,1111122 
SCCF RECON,ioos:station:SCCF:53:1,2010-03-03T03:00:00Z,26.6493,-81.8810,2.187,11.38,1111122 
SCCF RECON,ioos:station:SCCF:53:1,2010-03-03T04:00:00Z,26.6493,-81.8810,2.128,11.41,1111122 
SCCF RECON,ioos:station:SCCF:53:1,2010-03-03T05:00:00Z,26.6493,-81.8810,2.09,11.13,1111122 
SCCF RECON,ioos:station:SCCF:53:1,2010-03-03T06:00:00Z,26.6493,-81.8810,2.068,10.52,1111122 
SCCF RECON,ioos:station:SCCF:53:1,2010-03-03T07:00:00Z,26.6493,-81.8810,2.057,10.51,1111122 
SCCF RECON,ioos:station:SCCF:53:1,2010-03-03T08:00:00Z,26.6493,-81.8810,2.082,10.67,1111122 
SCCF RECON,ioos:station:SCCF:53:1,2010-03-03T09:00:00Z,26.6493,-81.8810,2.128,10.92,1111122 
SCCF RECON,ioos:station:SCCF:53:1,2010-03-03T10:00:00Z,26.6493,-81.8810,2.14,11.27,1111122 
SCCF RECON,ioos:station:SCCF:53:1,2010-03-03T11:00:00Z,26.6493,-81.8810,2.118,11.08,1111122 
SCCF RECON,ioos:station:SCCF:53:1,2010-03-03T12:00:00Z,26.6493,-81.8810,2.08,10.59,1111122 
SCCF RECON,ioos:station:SCCF:53:1,2010-03-03T13:00:00Z,26.6493,-81.8810,2.04,10.37,1111122 
SCCF RECON,ioos:station:SCCF:53:1,2010-03-03T14:00:00Z,26.6493,-81.8810,2.0,10.09,1111122 
SCCF RECON,ioos:station:SCCF:53:1,2010-03-03T15:00:00Z,26.6493,-81.8810,1.969,9.83,1111122 
SCCF RECON,ioos:station:SCCF:53:1,2010-03-03T16:00:00Z,26.6493,-81.8810,1.92,9.63,1111122 
SCCF RECON,ioos:station:SCCF:53:1,2010-03-03T17:00:00Z,26.6493,-81.8810,1.893,9.47,1111122 
SCCF RECON,ioos:station:SCCF:53:1,2010-03-03T18:00:00Z,26.6493,-81.8810,1.921,9.27,1111122 
SCCF RECON,ioos:station:SCCF:53:1,2010-03-03T19:00:00Z,26.6493,-81.8810,1.958,10.21,1111122 
SCCF RECON,ioos:station:SCCF:53:1,2010-03-03T20:00:00Z,26.6493,-81.8810,2.003,10.9,1111122 
SCCF RECON,ioos:station:SCCF:53:1,2010-03-03T21:00:00Z,26.6493,-81.8810,2.055,11.0,1111122 
SCCF RECON,ioos:station:SCCF:53:1,2010-03-03T22:00:00Z,26.6493,-81.8810,2.085,11.25,1111122 
SCCF RECON,ioos:station:SCCF:53:1,2010-03-03T23:00:00Z,26.6493,-81.8810,2.087,11.26,1111122 
SCCF RECON,ioos:station:SCCF:53:1,2010-03-04T00:00:00Z,26.6493,-81.8810,2.051,11.11,1111122 
SCCF RECON,ioos:station:SCCF:53:1,2010-03-04T01:00:00Z,26.6493,-81.8810,2.02,10.21,1111122 
SCCF RECON,ioos:station:SCCF:53:1,2010-03-04T02:00:00Z,26.6493,-81.8810,1.98,9.62,1111122 
SCCF RECON,ioos:station:SCCF:53:1,2010-03-04T03:00:00Z,26.6493,-81.8810,1.94,9.57,1111122 
SCCF RECON,ioos:station:SCCF:53:1,2010-03-04T04:00:00Z,26.6493,-81.8810,1.9,9.29,1111122 
SCCF RECON,ioos:station:SCCF:53:1,2010-03-04T05:00:00Z,26.6493,-81.8810,1.86,9.74,1111122 
SCCF RECON,ioos:station:SCCF:53:1,2010-03-04T06:00:00Z,26.6493,-81.8810,1.83,10.53,1111122 
SCCF RECON,ioos:station:SCCF:53:1,2010-03-04T07:00:00Z,26.6493,-81.8810,1.83,11.03,1111122 
SCCF RECON,ioos:station:SCCF:53:1,2010-03-04T08:00:00Z,26.6493,-81.8810,1.88,11.75,1111122 
SCCF RECON,ioos:station:SCCF:53:1,2010-03-04T09:00:00Z,26.6493,-81.8810,1.927,12.11,1111122 
SCCF RECON,ioos:station:SCCF:53:1,2010-03-04T10:00:00Z,26.6493,-81.8810,1.98,12.21,1111122 
SCCF RECON,ioos:station:SCCF:53:1,2010-03-04T11:00:00Z,26.6493,-81.8810,2.02,12.3,1111122 
SCCF RECON,ioos:station:SCCF:53:1,2010-03-04T12:00:00Z,26.6493,-81.8810,2.03,12.2,1111122 
SCCF RECON,ioos:station:SCCF:53:1,2010-03-04T13:00:00Z,26.6493,-81.8810,2.01,12.11,1111122 
SCCF RECON,ioos:station:SCCF:53:1,2010-03-04T14:00:00Z,26.6493,-81.8810,1.97,11.24,1111122 
SCCF RECON,ioos:station:SCCF:53:1,2010-03-04T15:00:00Z,26.6493,-81.8810,1.941,11.45,1111122 
SCCF RECON,ioos:station:SCCF:53:1,2010-03-04T16:00:00Z,26.6493,-81.8810,1.915,11.75,1111122 
SCCF RECON,ioos:station:SCCF:53:1,2010-03-04T17:00:00Z,26.6493,-81.8810,1.89,9.9,1111122 
SCCF RECON,ioos:station:SCCF:53:1,2010-03-04T18:00:00Z,26.6493,-81.8810,1.885,9.55,1111122 
SCCF RECON,ioos:station:SCCF:53:1,2010-03-04T19:00:00Z,26.6493,-81.8810,1.941,10.66,1111122 
SCCF RECON,ioos:station:SCCF:53:1,2010-03-04T20:00:00Z,26.6493,-81.8810,1.984,11.93,1111122 
SCCF RECON,ioos:station:SCCF:53:1,2010-03-04T21:00:00Z,26.6493,-81.8810,2.031,11.52,1111122 
SCCF RECON,ioos:station:SCCF:53:1,2010-03-04T22:00:00Z,26.6493,-81.8810,2.08,10.9,1111122 
SCCF RECON,ioos:station:SCCF:53:1,2010-03-04T23:00:00Z,26.6493,-81.8810,2.099,10.88,1111122 
SCCF RECON,ioos:station:SCCF:53:1,2010-03-05T00:00:00Z,26.6493,-81.8810,2.079,10.57,1111122 
SCCF RECON,ioos:station:SCCF:53:1,2010-03-05T01:00:00Z,26.6493,-81.8810,2.04,10.28,1111122 
SCCF RECON,ioos:station:SCCF:53:1,2010-03-05T02:00:00Z,26.6493,-81.8810,2.01,9.96,1111122 
SCCF RECON,ioos:station:SCCF:53:1,2010-03-05T03:00:00Z,26.6493,-81.8810,1.97,9.87,1111122 
SCCF RECON,ioos:station:SCCF:53:1,2010-03-05T04:00:00Z,26.6493,-81.8810,1.93,10.39,1111122 
SCCF RECON,ioos:station:SCCF:53:1,2010-03-05T05:00:00Z,26.6493,-81.8810,1.88,10.8,1111122 
SCCF RECON,ioos:station:SCCF:53:1,2010-03-05T06:00:00Z,26.6493,-81.8810,1.84,10.73,1111122 
SCCF RECON,ioos:station:SCCF:53:1,2010-03-05T07:00:00Z,26.6493,-81.8810,1.808,11.14,1111122 
SCCF RECON,ioos:station:SCCF:53:1,2010-03-05T08:00:00Z,26.6493,-81.8810,1.8,11.24,1111122 
SCCF RECON,ioos:station:SCCF:53:1,2010-03-05T09:00:00Z,26.6493,-81.8810,1.82,11.12,1111122 
SCCF RECON,ioos:station:SCCF:53:1,2010-03-05T10:00:00Z,26.6493,-81.8810,1.86,11.51,1111122 
SCCF RECON,ioos:station:SCCF:53:1,2010-03-05T11:00:00Z,26.6493,-81.8810,1.9,11.24,1111122 
SCCF RECON,ioos:station:SCCF:53:1,2010-03-05T12:00:00Z,26.6493,-81.8810,1.93,11.68,1111122 
SCCF RECON,ioos:station:SCCF:53:1,2010-03-05T13:00:00Z,26.6493,-81.8810,1.95,11.67,1111122 
SCCF RECON,ioos:station:SCCF:53:1,2010-03-05T14:00:00Z,26.6493,-81.8810,1.929,11.68,1111122 
SCCF RECON,ioos:station:SCCF:53:1,2010-03-05T15:00:00Z,26.6493,-81.8810,1.901,11.51,1111122 
SCCF RECON,ioos:station:SCCF:53:1,2010-03-05T16:00:00Z,26.6493,-81.8810,1.889,11.64,1111122 
SCCF RECON,ioos:station:SCCF:53:1,2010-03-05T17:00:00Z,26.6493,-81.8810,1.88,11.8,1111122 
SCCF RECON,ioos:station:SCCF:53:1,2010-03-05T18:00:00Z,26.6493,-81.8810,1.887,11.42,1111122 
SCCF RECON,ioos:station:SCCF:53:1,2010-03-05T19:00:00Z,26.6493,-81.8810,1.92,11.49,1111122 
SCCF RECON,ioos:station:SCCF:53:1,2010-03-05T20:00:00Z,26.6493,-81.8810,1.965,10.56,1111122 
SCCF RECON,ioos:station:SCCF:53:1,2010-03-05T21:00:00Z,26.6493,-81.8810,2.017,11.84,1111122 
SCCF RECON,ioos:station:SCCF:53:1,2010-03-05T22:00:00Z,26.6493,-81.8810,2.07,10.75,1111122 
SCCF RECON,ioos:station:SCCF:53:1,2010-03-05T23:00:00Z,26.6493,-81.8810,2.119,11.15,1111122 
SCCF RECON,ioos:station:SCCF:53:1,2010-03-06T00:00:00Z,26.6493,-81.8810,2.13,10.55,1111122 
SCCF RECON,ioos:station:SCCF:53:1,2010-03-06T01:00:00Z,26.6493,-81.8810,2.109,10.55,1111122 
SCCF RECON,ioos:station:SCCF:53:1,2010-03-06T02:00:00Z,26.6493,-81.8810,2.07,9.85,1111122 
SCCF RECON,ioos:station:SCCF:53:1,2010-03-06T03:00:00Z,26.6493,-81.8810,2.03,9.7,1111122 
SCCF RECON,ioos:station:SCCF:53:1,2010-03-06T04:00:00Z,26.6493,-81.8810,1.993,9.67,1111122 
SCCF RECON,ioos:station:SCCF:53:1,2010-03-06T05:00:00Z,26.6493,-81.8810,1.95,10.09,1111122 
SCCF RECON,ioos:station:SCCF:53:1,2010-03-06T06:00:00Z,26.6493,-81.8810,1.91,10.47,1111122 
SCCF RECON,ioos:station:SCCF:53:1,2010-03-06T07:00:00Z,26.6493,-81.8810,1.87,10.59,1111122 
SCCF RECON,ioos:station:SCCF:53:1,2010-03-06T08:00:00Z,26.6493,-81.8810,1.825,10.72,1111122 
SCCF RECON,ioos:station:SCCF:53:1,2010-03-06T09:00:00Z,26.6493,-81.8810,1.8,10.77,1111122 
SCCF RECON,ioos:station:SCCF:53:1,2010-03-06T10:00:00Z,26.6493,-81.8810,1.79,10.23,1111122 
SCCF RECON,ioos:station:SCCF:53:1,2010-03-06T11:00:00Z,26.6493,-81.8810,1.8,9.19,1111122 
SCCF RECON,ioos:station:SCCF:53:1,2010-03-06T12:00:00Z,26.6493,-81.8810,1.8,10.33,1111122 
SCCF RECON,ioos:station:SCCF:53:1,2010-03-06T13:00:00Z,26.6493,-81.8810,1.81,10.29,1111122 
SCCF RECON,ioos:station:SCCF:53:1,2010-03-06T14:00:00Z,26.6493,-81.8810,1.82,10.44,1111122 
SCCF RECON,ioos:station:SCCF:53:1,2010-03-06T15:00:00Z,26.6493,-81.8810,1.819,10.71,1111122 
SCCF RECON,ioos:station:SCCF:53:1,2010-03-06T16:00:00Z,26.6493,-81.8810,1.8,10.71,1111122 
SCCF RECON,ioos:station:SCCF:53:1,2010-03-06T17:00:00Z,26.6493,-81.8810,1.79,10.92,1111122 
SCCF RECON,ioos:station:SCCF:53:1,2010-03-06T18:00:00Z,26.6493,-81.8810,1.795,10.67,1111122 
SCCF RECON,ioos:station:SCCF:53:1,2010-03-06T19:00:00Z,26.6493,-81.8810,1.83,10.88,1111122 
SCCF RECON,ioos:station:SCCF:53:1,2010-03-06T20:00:00Z,26.6493,-81.8810,1.87,10.9,1111122 
SCCF RECON,ioos:station:SCCF:53:1,2010-03-06T21:00:00Z,26.6493,-81.8810,1.913,11.07,1111122 
SCCF RECON,ioos:station:SCCF:53:1,2010-03-06T22:00:00Z,26.6493,-81.8810,1.974,10.18,1111122 
SCCF RECON,ioos:station:SCCF:53:1,2010-03-06T23:00:00Z,26.6493,-81.8810,2.03,10.23,1111122 
SCCF RECON,ioos:station:SCCF:53:1,2010-03-07T00:00:00Z,26.6493,-81.8810,2.071,10.83,1111122 
SCCF RECON,ioos:station:SCCF:53:1,2010-03-07T01:00:00Z,26.6493,-81.8810,2.1,10.54,1111122 
SCCF RECON,ioos:station:SCCF:53:1,2010-03-07T02:00:00Z,26.6493,-81.8810,2.082,10.06,1111122 
SCCF RECON,ioos:station:SCCF:53:1,2010-03-07T03:00:00Z,26.6493,-81.8810,2.05,9.96,1111122 
SCCF RECON,ioos:station:SCCF:53:1,2010-03-07T04:00:00Z,26.6493,-81.8810,2.004,8.94,1111122 
SCCF RECON,ioos:station:SCCF:53:1,2010-03-07T05:00:00Z,26.6493,-81.8810,1.97,8.53,1111122 
SCCF RECON,ioos:station:SCCF:53:1,2010-03-07T06:00:00Z,26.6493,-81.8810,1.93,9.16,1111122 
SCCF RECON,ioos:station:SCCF:53:1,2010-03-07T07:00:00Z,26.6493,-81.8810,1.89,10.15,1111122 
SCCF RECON,ioos:station:SCCF:53:1,2010-03-07T08:00:00Z,26.6493,-81.8810,1.85,8.29,1111122 
SCCF RECON,ioos:station:SCCF:53:1,2010-03-07T09:00:00Z,26.6493,-81.8810,1.81,8.33,1111122 
SCCF RECON,ioos:station:SCCF:53:1,2010-03-07T10:00:00Z,26.6493,-81.8810,1.8,8.83,1111122 
SCCF RECON,ioos:station:SCCF:53:1,2010-03-07T11:00:00Z,26.6493,-81.8810,1.78,8.88,1111122 
SCCF RECON,ioos:station:SCCF:53:1,2010-03-07T12:00:00Z,26.6493,-81.8810,1.79,8.32,1111122 
SCCF RECON,ioos:station:SCCF:53:1,2010-03-07T13:00:00Z,26.6493,-81.8810,1.83,8.88,1111122 
SCCF RECON,ioos:station:SCCF:53:1,2010-03-07T14:00:00Z,26.6493,-81.8810,1.86,9.38,1111122 
SCCF RECON,ioos:station:SCCF:53:1,2010-03-07T15:00:00Z,26.6493,-81.8810,1.88,9.51,1111122 
SCCF RECON,ioos:station:SCCF:53:1,2010-03-07T16:00:00Z,26.6493,-81.8810,1.884,9.63,1111122 
SCCF RECON,ioos:station:SCCF:53:1,2010-03-07T17:00:00Z,26.6493,-81.8810,1.88,9.9,1111122 
SCCF RECON,ioos:station:SCCF:53:1,2010-03-07T18:00:00Z,26.6493,-81.8810,1.888,10.39,1111122 
SCCF RECON,ioos:station:SCCF:53:1,2010-03-07T19:00:00Z,26.6493,-81.8810,1.912,10.02,1111122 
SCCF RECON,ioos:station:SCCF:53:1,2010-03-07T20:00:00Z,26.6493,-81.8810,1.951,10.14,1111122 
SCCF RECON,ioos:station:SCCF:53:1,2010-03-07T21:00:00Z,26.6493,-81.8810,1.99,10.38,1111122 
SCCF RECON,ioos:station:SCCF:53:1,2010-03-07T22:00:00Z,26.6493,-81.8810,2.04,10.55,1111122 
SCCF RECON,ioos:station:SCCF:53:1,2010-03-07T23:00:00Z,26.6493,-81.8810,2.09,11.68,1111122 
SCCF RECON,ioos:station:SCCF:53:1,2010-03-08T00:00:00Z,26.6493,-81.8810,2.14,11.32,1111122 
SCCF RECON,ioos:station:SCCF:53:1,2010-03-08T01:00:00Z,26.6493,-81.8810,2.17,10.6,1111122 
SCCF RECON,ioos:station:SCCF:53:1,2010-03-08T02:00:00Z,26.6493,-81.8810,2.17,10.64,1111122 
SCCF RECON,ioos:station:SCCF:53:1,2010-03-08T03:00:00Z,26.6493,-81.8810,2.14,10.48,1111122 
SCCF RECON,ioos:station:SCCF:53:1,2010-03-08T04:00:00Z,26.6493,-81.8810,2.1,9.81,1111122 
SCCF RECON,ioos:station:SCCF:53:1,2010-03-08T05:00:00Z,26.6493,-81.8810,2.06,10.53,1111122 
SCCF RECON,ioos:station:SCCF:53:1,2010-03-08T06:00:00Z,26.6493,-81.8810,2.01,10.8,1111122 
SCCF RECON,ioos:station:SCCF:53:1,2010-03-08T07:00:00Z,26.6493,-81.8810,1.97,11.02,1111122 
SCCF RECON,ioos:station:SCCF:53:1,2010-03-08T08:00:00Z,26.6493,-81.8810,1.92,11.1,1111122 
SCCF RECON,ioos:station:SCCF:53:1,2010-03-08T09:00:00Z,26.6493,-81.8810,1.88,11.09,1111122 
SCCF RECON,ioos:station:SCCF:53:1,2010-03-08T10:00:00Z,26.6493,-81.8810,1.84,11.3,1111122 
SCCF RECON,ioos:station:SCCF:53:1,2010-03-08T11:00:00Z,26.6493,-81.8810,1.82,11.58,1111122 
SCCF RECON,ioos:station:SCCF:53:1,2010-03-08T12:00:00Z,26.6493,-81.8810,1.82,11.67,1111122 
SCCF RECON,ioos:station:SCCF:53:1,2010-03-08T13:00:00Z,26.6493,-81.8810,1.85,11.62,1111122 
SCCF RECON,ioos:station:SCCF:53:1,2010-03-08T14:00:00Z,26.6493,-81.8810,1.89,11.88,1111122 
SCCF RECON,ioos:station:SCCF:53:1,2010-03-08T15:00:00Z,26.6493,-81.8810,1.93,11.45,1111122 
SCCF RECON,ioos:station:SCCF:53:1,2010-03-08T16:00:00Z,26.6493,-81.8810,1.97,11.62,1111122 
SCCF RECON,ioos:station:SCCF:53:1,2010-03-08T17:00:00Z,26.6493,-81.8810,1.992,11.38,1111122 
SCCF RECON,ioos:station:SCCF:53:1,2010-03-08T18:00:00Z,26.6493,-81.8810,2.018,11.95,1111122 
SCCF RECON,ioos:station:SCCF:53:1,2010-03-08T19:00:00Z,26.6493,-81.8810,2.03,12.13,1111122 
SCCF RECON,ioos:station:SCCF:53:1,2010-03-08T20:00:00Z,26.6493,-81.8810,2.067,11.97,1111122 
SCCF RECON,ioos:station:SCCF:53:1,2010-03-08T21:00:00Z,26.6493,-81.8810,2.099,12.03,1111122 
SCCF RECON,ioos:station:SCCF:53:1,2010-03-08T22:00:00Z,26.6493,-81.8810,2.136,11.74,1111122 
SCCF RECON,ioos:station:SCCF:53:1,2010-03-08T23:00:00Z,26.6493,-81.8810,2.175,11.52,1111122 
SCCF RECON,ioos:station:SCCF:53:1,2010-03-09T00:00:00Z,26.6493,-81.8810,2.211,10.86,1111122 
SCCF RECON,ioos:station:SCCF:53:1,2010-03-09T01:00:00Z,26.6493,-81.8810,2.236,11.19,1111122 
SCCF RECON,ioos:station:SCCF:53:1,2010-03-09T02:00:00Z,26.6493,-81.8810,2.25,11.44,1111122 
SCCF RECON,ioos:station:SCCF:53:1,2010-03-09T03:00:00Z,26.6493,-81.8810,2.24,11.96,1111122 
SCCF RECON,ioos:station:SCCF:53:1,2010-03-09T04:00:00Z,26.6493,-81.8810,2.2,11.68,1111122 
SCCF RECON,ioos:station:SCCF:53:1,2010-03-09T05:00:00Z,26.6493,-81.8810,2.16,11.29,1111122 
SCCF RECON,ioos:station:SCCF:53:1,2010-03-09T06:00:00Z,26.6493,-81.8810,2.11,11.48,1111122 
SCCF RECON,ioos:station:SCCF:53:1,2010-03-09T07:00:00Z,26.6493,-81.8810,2.06,11.79,1111122 
SCCF RECON,ioos:station:SCCF:53:1,2010-03-09T08:00:00Z,26.6493,-81.8810,2.02,12.09,1111122 
SCCF RECON,ioos:station:SCCF:53:1,2010-03-09T09:00:00Z,26.6493,-81.8810,1.97,11.78,1111122 
SCCF RECON,ioos:station:SCCF:53:1,2010-03-09T10:00:00Z,26.6493,-81.8810,1.93,12.02,1111122 
SCCF RECON,ioos:station:SCCF:53:1,2010-03-09T11:00:00Z,26.6493,-81.8810,1.9,12.13,1111122 
SCCF RECON,ioos:station:SCCF:53:1,2010-03-09T12:00:00Z,26.6493,-81.8810,1.89,12.81,1111122 
SCCF RECON,ioos:station:SCCF:53:1,2010-03-09T13:00:00Z,26.6493,-81.8810,1.9,12.95,1111122 
SCCF RECON,ioos:station:SCCF:53:1,2010-03-09T14:00:00Z,26.6493,-81.8810,1.941,12.8,1111122 
SCCF RECON,ioos:station:SCCF:53:1,2010-03-09T15:00:00Z,26.6493,-81.8810,1.98,12.3,1111122 
SCCF RECON,ioos:station:SCCF:53:1,2010-03-09T16:00:00Z,26.6493,-81.8810,2.02,12.67,1111122 
SCCF RECON,ioos:station:SCCF:53:1,2010-03-09T17:00:00Z,26.6493,-81.8810,2.056,13.39,1111122 
SCCF RECON,ioos:station:SCCF:53:1,2010-03-09T18:00:00Z,26.6493,-81.8810,2.09,13.75,1111122 
SCCF RECON,ioos:station:SCCF:53:1,2010-03-09T19:00:00Z,26.6493,-81.8810,2.119,14.28,1111122 
SCCF RECON,ioos:station:SCCF:53:1,2010-03-09T20:00:00Z,26.6493,-81.8810,2.15,14.35,1111122 
SCCF RECON,ioos:station:SCCF:53:1,2010-03-09T21:00:00Z,26.6493,-81.8810,2.16,13.49,1111122 
SCCF RECON,ioos:station:SCCF:53:1,2010-03-09T22:00:00Z,26.6493,-81.8810,2.14,13.28,1111122 
SCCF RECON,ioos:station:SCCF:53:1,2010-03-09T23:00:00Z,26.6493,-81.8810,2.142,12.44,1111122 
SCCF RECON,ioos:station:SCCF:53:1,2010-03-10T00:00:00Z,26.6493,-81.8810,2.18,13.41,1111122 
SCCF RECON,ioos:station:SCCF:53:1,2010-03-10T01:00:00Z,26.6493,-81.8810,2.22,13.9,1111122 
SCCF RECON,ioos:station:SCCF:53:1,2010-03-10T02:00:00Z,26.6493,-81.8810,2.26,14.14,1111122 
SCCF RECON,ioos:station:SCCF:53:1,2010-03-10T03:00:00Z,26.6493,-81.8810,2.29,14.43,1111122 
SCCF RECON,ioos:station:SCCF:53:1,2010-03-10T04:00:00Z,26.6493,-81.8810,2.28,14.66,1111122 
SCCF RECON,ioos:station:SCCF:53:1,2010-03-10T05:00:00Z,26.6493,-81.8810,2.26,14.51,1111122 
SCCF RECON,ioos:station:SCCF:53:1,2010-03-10T06:00:00Z,26.6493,-81.8810,2.2,13.9,1111122 
SCCF RECON,ioos:station:SCCF:53:1,2010-03-10T07:00:00Z,26.6493,-81.8810,2.15,13.9,1111122 
SCCF RECON,ioos:station:SCCF:53:1,2010-03-10T08:00:00Z,26.6493,-81.8810,2.1,14.38,1111122 
SCCF RECON,ioos:station:SCCF:53:1,2010-03-10T09:00:00Z,26.6493,-81.8810,2.041,14.4,1111122 
SCCF RECON,ioos:station:SCCF:53:1,2010-03-10T10:00:00Z,26.6493,-81.8810,2.0,14.67,1111122 
SCCF RECON,ioos:station:SCCF:53:1,2010-03-10T11:00:00Z,26.6493,-81.8810,1.96,15.09,1111122 
SCCF RECON,ioos:station:SCCF:53:1,2010-03-10T12:00:00Z,26.6493,-81.8810,1.93,14.9,1111122 
SCCF RECON,ioos:station:SCCF:53:1,2010-03-10T13:00:00Z,26.6493,-81.8810,1.91,14.82,1111122 
SCCF RECON,ioos:station:SCCF:53:1,2010-03-10T14:00:00Z,26.6493,-81.8810,1.93,14.32,1111122 
SCCF RECON,ioos:station:SCCF:53:1,2010-03-10T15:00:00Z,26.6493,-81.8810,1.974,14.33,1111122 
SCCF RECON,ioos:station:SCCF:53:1,2010-03-10T16:00:00Z,26.6493,-81.8810,2.0,14.82,1111122 
SCCF RECON,ioos:station:SCCF:53:1,2010-03-10T17:00:00Z,26.6493,-81.8810,2.039,14.05,1111122 
SCCF RECON,ioos:station:SCCF:53:1,2010-03-10T18:00:00Z,26.6493,-81.8810,2.072,13.33,1111122 
SCCF RECON,ioos:station:SCCF:53:1,2010-03-10T19:00:00Z,26.6493,-81.8810,2.103,15.12,1111122 
SCCF RECON,ioos:station:SCCF:53:1,2010-03-10T20:00:00Z,26.6493,-81.8810,2.13,14.56,1111122 
SCCF RECON,ioos:station:SCCF:53:1,2010-03-10T21:00:00Z,26.6493,-81.8810,2.144,14.14,1111122 
SCCF RECON,ioos:station:SCCF:53:1,2010-03-10T22:00:00Z,26.6493,-81.8810,2.146,13.44,1111122 
SCCF RECON,ioos:station:SCCF:53:1,2010-03-10T23:00:00Z,26.6493,-81.8810,2.143,13.5,1111122 
SCCF RECON,ioos:station:SCCF:53:1,2010-03-11T00:00:00Z,26.6493,-81.8810,2.159,13.99,1111122 
SCCF RECON,ioos:station:SCCF:53:1,2010-03-11T01:00:00Z,26.6493,-81.8810,2.181,14.92,1111122 
SCCF RECON,ioos:station:SCCF:53:1,2010-03-11T02:00:00Z,26.6493,-81.8810,2.228,14.84,1111122 
SCCF RECON,ioos:station:SCCF:53:1,2010-03-11T03:00:00Z,26.6493,-81.8810,2.26,15.03,1111122 
SCCF RECON,ioos:station:SCCF:53:1,2010-03-11T04:00:00Z,26.6493,-81.8810,2.3,14.14,1111122 
SCCF RECON,ioos:station:SCCF:53:1,2010-03-11T05:00:00Z,26.6493,-81.8810,2.31,15.58,1111122 
SCCF RECON,ioos:station:SCCF:53:1,2010-03-11T06:00:00Z,26.6493,-81.8810,2.27,14.63,1111122 
SCCF RECON,ioos:station:SCCF:53:1,2010-03-11T07:00:00Z,26.6493,-81.8810,2.21,15.12,1111122 
SCCF RECON,ioos:station:SCCF:53:1,2010-03-11T08:00:00Z,26.6493,-81.8810,2.16,14.62,1111122 
SCCF RECON,ioos:station:SCCF:53:1,2010-03-11T09:00:00Z,26.6493,-81.8810,2.11,14.92,1111122 
SCCF RECON,ioos:station:SCCF:53:1,2010-03-11T10:00:00Z,26.6493,-81.8810,2.054,15.33,1111122 
SCCF RECON,ioos:station:SCCF:53:1,2010-03-11T11:00:00Z,26.6493,-81.8810,2.001,14.77,1111122 
SCCF RECON,ioos:station:SCCF:53:1,2010-03-11T12:00:00Z,26.6493,-81.8810,1.958,14.5,1111122 
SCCF RECON,ioos:station:SCCF:53:1,2010-03-11T13:00:00Z,26.6493,-81.8810,1.92,14.26,1111122 
SCCF RECON,ioos:station:SCCF:53:1,2010-03-11T14:00:00Z,26.6493,-81.8810,1.928,14.35,1111122 
SCCF RECON,ioos:station:SCCF:53:1,2010-03-11T15:00:00Z,26.6493,-81.8810,1.963,13.07,1111122 
SCCF RECON,ioos:station:SCCF:53:1,2010-03-11T16:00:00Z,26.6493,-81.8810,2.022,12.29,1111122 
SCCF RECON,ioos:station:SCCF:53:1,2010-03-11T17:00:00Z,26.6493,-81.8810,2.069,13.43,1111122 
SCCF RECON,ioos:station:SCCF:53:1,2010-03-11T18:00:00Z,26.6493,-81.8810,2.127,12.12,1111122 